Location: Mascot Post Office (historical)
(40.2645°N, 99.5462°W)
Time: 02:47:40
(UTC+00:00)

NPP - Pass Details

Date: 14 July 2020
Orbit: 826 x 828 km, 98.7° (Epoch: 14 August)

Event Time Altitude Azimuth Distance (km) Brightness Sun altitude
Rises 08:06:04 0° 17° (NNE) 3,374 8.2 -25.3°
Reaches altitude 10° 08:08:27 10° 21° (NNE) 2,436 7.2 -25.1°
Maximum altitude 08:13:48 61° 101° (ESE) 935 3.9 -24.7°
Enters shadow 08:14:51 51° 148° (SSE) 1,034 3.9 -24.6°
